DELTA 1 DEB *, 6213

Orbit data source: Space-Track

DELTA 1 DEB *, 6213 is space debris in SSO originally from a launch on Sun, 02 Oct 1966 UTC launched from the Air Force Western Test Range (AFWTR). Debris objects in space refer to the collection of defunct objects orbiting the Earth. Examples of debris include non-operational satellites, rocket bodies, and fragments generated from explosions, collisions, or faulty payload assembly.

Loading next visibility...
Identifier
6213, 1966-087E
Orbit
SSO
Last TLE update
2 days ago
Origin
Manufacturer
Unknown
Mission
Spacecraft
Bus & Motor
Unknown
Mass
Unknown
Launch date (UTC)
1966-10-02 (59 years ago)
Launch vehicle
Unknown
Launch site
Air Force Western Test Range (AFWTR)
Object type
Payload
Rocket body
Debris
Shape & HBR
Unknown
Radar Cross Section
Small (<0.1 m²)

Expand to show TLE details & history

TLE from 2 days ago
0 DELTA 1 DEB *
1 06213U 66087E   25127.41955807  .00003666  00000-0  87386-2 0  9990
2 06213 101.7827  92.7312 0058811  42.8151 109.3983 13.23145382742635
Epoch: 2025-05-07T10:04Z
Definitive object data (Epoch: 2025-05-07T10:04:09.817Z)
Latitude
26.57179°
Longitude
-97.85634°
Altitude
1,190.729 km
Speed
7.254 km/s
True Right ascension
18h 34m 45s
True Declination
26° 26' 32"
Sunlit
Object was in daylight at TLE epoch
Visualization TLE readout
Latitude
73.37746°
Longitude
34.34136°
Altitude
1,150.775 km
Speed
7.301 km/s
Apparent Right ascension
04h 31m 57s
Apparent Declination
24° 16' 26"
Sunlit
Object is in daylight
Visualization observer readout
Local Sidereal Time
17:01:45
Azimuth
7.519° NNE
Elevation
-25.435°
Doppler factor
1
Orbital elements
Apogee altitude
1,214.576 km
Perigee altitude
1,125.791 km
Semi-major axis
7,548.32 km
Eccentricity
0.0058811
Inclination
101.7827°
RAAN
92.7312°
Arg. of periapsis
42.8151°
True anomaly
110.03241°
Mean anomaly
109.3983°
Eccentric anomaly
109.71551°
Mean motion
3.30954 °/min
BSTAR
0.0087386
Orbital period
108.78 mins
Loading maneuver chart data...
Loading SW <> Apogee altitude chart data...
Loading historical data...
Loading historical data...
Loading historical data...
Loading historical data...
Loading historical data...
Loading historical data...
Loading historical data...
Other satellites on launch #87 in the year 1966 (1966-10-02 UTC)

DELTA 1 DEB * Visibility forecast

Observer location: undefined°, undefined°

Span
Click to sort rows by Start time (UTC) header in descending order
Start Az.
Max El. time (UTC)
Max El. Az.
Max El.
End time (UTC)
End Az.
8 mins2025-05-09 09:08:31.206Z60.486° ENE2025-05-09 09:12:31.206Z98.881° ESE16.99°2025-05-09 09:16:31.206Z133.824° SE
12 mins2025-05-09 10:54:31.206Z13.725° NNE2025-05-09 10:59:31.206Z298.421° NW44.506°2025-05-09 11:06:31.206Z204.805° SW
5 mins2025-05-09 12:43:31.206Z327.162° NNW2025-05-09 12:45:31.206Z307.986° NW15.236°2025-05-09 12:48:31.206Z280.564° WNW
5 mins2025-05-09 19:35:31.206Z73.554° E2025-05-09 19:37:31.206Z54.233° ENE14.971°2025-05-09 19:40:31.206Z25.629° NE
11 mins2025-05-09 21:18:31.206Z155.584° SSE2025-05-09 21:23:31.206Z95.374° ESE44.616°2025-05-09 21:29:31.206Z344.972° N
6 mins2025-05-09 23:08:31.206Z239.501° WSW2025-05-09 23:11:31.206Z268.75° W15.596°2025-05-09 23:14:31.206Z297.293° NW
|